Regional Weather Roundup
Issued by NWS Sioux Falls, SD

Home | Current Version | Previous Version | Graphics & Text | Print | Product List | Glossary Off
Versions: 1 2 3 4 5 6 7 8 9 10 11 12 13 14 15 16 17 18 19 20 21 22 23 24 25 26 27 28 29 30 31 32 33 34 35 36 37 38 39 40 41 42 43 44 45 46 47 48 49 50

000
ASUS43 KFSD 241402
RWRFSD

WEATHER ROUNDUP FOR SE SOUTH DAKOTA/SW MINNESOTA/NW IOWA
NATIONAL WEATHER SERVICE SIOUX FALLS SD
900 AM CDT MON APR 24 2017

NOTE: "FAIR" INDICATES FEW OR NO CLOUDS BELOW 12,000 FEET WITH NO
SIGNIFICANT WEATHER AND OR OBSTRUCTIONS TO VISIBILITY.


SDZ038>040-050-052>070-241500-
SOUTHEAST SOUTH DAKOTA

CITY           SKY/WX    TMP DP  RH WIND       PRES   REMARKS
BROOKINGS      CLOUDY    53  37  54 S18       29.60F
CHAMBERLAIN    MOSUNNY   59  41  51 S17       29.53R
HURON          CLOUDY    54  38  54 S21       29.53S
MADISON        FAIR      50  37  62 S18G26    29.61S
MITCHELL       CLOUDY    55  38  52 S18G26    29.57S
SIOUX FALLS    CLOUDY    55  38  52 S23G31    29.63F
WINNER         FAIR      47  39  74 NW17      29.56R
YANKTON        CLOUDY    55  36  47 S18G24    29.61F
$$

MNZ071-072-080-081-089-090-097-098-241500-
SOUTHWEST MINNESOTA

CITY           SKY/WX    TMP DP  RH WIND       PRES   REMARKS
FAIRMONT       CLOUDY    55  37  50 S22G30    29.76F
JACKSON        CLOUDY    54  34  47 S23       29.74F
LUVERNE        CLOUDY    54  34  47 S20G25    29.66F
MARSHALL       CLOUDY    57  35  43 S25G38    29.62F
MONTEVIDEO     CLOUDY    57  36  44 SW16G24   29.63F
PIPESTONE      CLOUDY    52  34  50 S22G28    29.63F
REDWOOD FALLS  CLOUDY    57  36  45 S22       29.68F
TRACY          CLOUDY    56  37  49 S15G24    29.66F
WINDOM         CLOUDY    55  36  47 S20G29    29.70F
WORTHINGTON    PTSUNNY   54  37  52 S21G29    29.69F
$$

IAZ001>003-012>014-020>022-031-032-NEZ013-014-SDZ071-241500-
NORTHWEST IOWA

CITY           SKY/WX    TMP DP  RH WIND       PRES   REMARKS
CHEROKEE       PTSUNNY   56  37  47 S23G33    29.72F
DENISON        MOSUNNY   57  36  44 S23G31    29.77F
ESTHERVILLE    CLOUDY    54  38  54 S21G36    29.75F
LE MARS        CLOUDY    59  36  41 S28G36    29.69S
ORANGE CITY    CLOUDY    55  39  54 S20       29.68F
SHELDON        MOSUNNY   57  36  44 S25G36    29.68F
SIOUX CITY     CLOUDY    57  38  48 S15G28    29.69F
SPENCER        CLOUDY    57  37  47 S24G31    29.73F
STORM LAKE     MOSUNNY   55  36  47 S23G33    29.75F
$$

ABBREVIATIONS USED IN REMARKS
   TC - TEMPERATURE IN CELSIUS
  WCI - WIND CHILL INDEX
   HX - HEAT INDEX
  VSB - VISIBILITY





USA.gov is the U.S. government's official web portal to all federal, state and local government web resources and services.